Погода в Кардаилове

Россия / Оренбургская область     51°32′12″N   53°54′24″E
темп.,
°C
ветер,
м/с
пор.,
м/с
влажн.,
%
обл.,
%
осадки,
мм/ч
давл.,
гПа
погр.,
м
27 октября, ср
ср2723:00+1зюз34455 0.0 103059
02:000юз37525 0.0 1030122
05:00−1юз48607 0.0 1030158
08:00−1юз496634 0.0 1029187
11:00+3юз6104958 0.0 1029462
14:00+7зюз7103821 0.0 1028819
17:00+7юз610385 0.0 1026778
20:00+4юз5124857 0.0 1026303
28 октября, чт
чт2823:00+3юз5135096 0.0 1025306
02:00+2юз6145144 0.0 1024313
05:00+2юз614535 0.0 1023360
08:00+1юз7155943 0.0 1022389
11:00+5юз8155055 0.0 1022640
14:00+8зюз8113791 0.0 10211037
17:00+7зюз61040100 0.0 1021942
20:00+5юз41150100 0.0 1021306
29 октября, пт
пт2923:00+4юз41062100 0.0 1020286
02:00+4юз41068100 0.0 1020287
05:00+4юз4972100 0.0 1020294
08:00+4юз4878100 0.0 1020260
11:00+6зюз4564100 0.0 1022384
14:00+7з4556100 0.0 1023972
17:00+6ссз2275100 0.1 1026683
20:00+4ссв3295100 0.1 1029613
30 октября, сб
сб3023:00+4всв4391100 0.1 1030543
02:00+3всв4451100 0.0 1032282
05:00+2всв235167 0.0 1032157
08:00+1всв225747 0.0 103442
11:00+4зюз12575 0.0 1034240
14:00+7зюз45585 0.0 1034743
17:00+8з466065 0.0 1033724
20:00+4з37705 0.0 1034136
31 октября, вс
вс3123:00+3з387160 0.0 1034173
02:00+2зюз49646 0.0 1033192
05:00+2зюз49595 0.0 1034185
08:00+1зюз48666 0.0 1033157
11:00+5з476170 0.0 1034285
14:00+9з4652100 0.0 1034527
17:00+9з36542 0.0 1033184
20:00+6зюз34660 0.0 103443